TimeMDT,TemperatureF,Dew PointF,Humidity,Sea Level PressureIn,VisibilityMPH,Wind Direction,Wind SpeedMPH,Gust SpeedMPH,PrecipitationIn,Events,Conditions,WindDirDegrees,DateUTC
12:15 AM,69.8,39.2,33,30.07,10.0,South,10.4,-,N/A,,Clear,170,2013-08-15 06:15:00
12:35 AM,69.8,35.6,28,30.07,10.0,SSE,11.5,-,N/A,,Clear,150,2013-08-15 06:35:00
12:55 AM,69.8,39.2,33,30.07,10.0,SSE,5.8,-,N/A,,Clear,150,2013-08-15 06:55:00
1:15 AM,68.0,37.4,33,30.07,10.0,WSW,3.5,-,N/A,,Clear,240,2013-08-15 07:15:00
1:35 AM,66.2,42.8,43,30.08,10.0,North,3.5,-,N/A,,Clear,10,2013-08-15 07:35:00
1:55 AM,62.6,41.0,45,30.08,10.0,Calm,Calm,-,N/A,,Clear,0,2013-08-15 07:55:00
2:15 AM,60.8,41.0,48,30.08,10.0,East,5.8,-,N/A,,Clear,90,2013-08-15 08:15:00
2:35 AM,62.6,41.0,45,30.09,10.0,Calm,Calm,-,N/A,,Clear,0,2013-08-15 08:35:00
2:55 AM,62.6,41.0,45,30.10,10.0,SE,5.8,-,N/A,,Clear,140,2013-08-15 08:55:00
3:15 AM,64.4,42.8,45,30.11,10.0,ESE,9.2,-,N/A,,Clear,110,2013-08-15 09:15:00
3:35 AM,64.4,37.4,37,30.11,10.0,SE,6.9,-,N/A,,Clear,130,2013-08-15 09:35:00
3:55 AM,60.8,42.8,52,30.11,10.0,Calm,Calm,-,N/A,,Clear,0,2013-08-15 09:55:00
4:15 AM,62.6,44.6,52,30.11,10.0,SW,3.5,-,N/A,,Clear,230,2013-08-15 10:15:00
4:35 AM,62.6,42.8,48,30.11,10.0,Calm,Calm,-,N/A,,Clear,0,2013-08-15 10:35:00
4:55 AM,62.6,42.8,48,30.11,10.0,SSE,3.5,-,N/A,,Clear,150,2013-08-15 10:55:00
5:15 AM,60.8,41.0,48,30.11,10.0,ESE,5.8,-,N/A,,Clear,110,2013-08-15 11:15:00
5:35 AM,60.8,39.2,45,30.11,10.0,ESE,3.5,-,N/A,,Clear,120,2013-08-15 11:35:00
5:55 AM,59.0,39.2,48,30.12,10.0,Calm,Calm,-,N/A,,Clear,0,2013-08-15 11:55:00
6:15 AM,62.6,39.2,42,30.12,10.0,South,4.6,-,N/A,,Clear,180,2013-08-15 12:15:00
6:35 AM,57.2,37.4,48,30.13,10.0,Calm,Calm,-,N/A,,Clear,0,2013-08-15 12:35:00
6:55 AM,53.6,41.0,62,30.14,10.0,Calm,Calm,-,N/A,,Clear,0,2013-08-15 12:55:00
6:56 AM,53.6,41.0,62,30.14,15.0,Calm,Calm,-,N/A,,Partly Cloudy,0,2013-08-15 12:56:00
7:51 AM,60.8,41.0,48,30.15,15.0,ESE,5.8,-,N/A,,Partly Cloudy,110,2013-08-15 13:51:00
8:55 AM,69.8,37.4,31,30.13,15.0,SE,11.5,-,N/A,,Partly Cloudy,140,2013-08-15 14:55:00
9:56 AM,75.2,41.0,29,30.17,15.0,ESE,9.2,-,N/A,,Partly Cloudy,120,2013-08-15 15:56:00
10:55 AM,80.6,39.2,23,30.17,15.0,SW,3.5,-,N/A,,Partly Cloudy,230,2013-08-15 16:55:00
11:50 AM,80.6,42.8,26,30.16,15.0,WSW,3.5,-,N/A,,Clear,240,2013-08-15 17:50:00
12:55 PM,87.8,39.2,18,30.14,15.0,SSW,4.6,-,N/A,,Clear,210,2013-08-15 18:55:00
1:58 PM,91.4,33.8,13,30.12,15.0,Variable,4.6,-,N/A,,Partly Cloudy,0,2013-08-15 19:58:00
2:47 PM,91.4,33.8,13,30.10,15.0,Variable,4.6,-,N/A,,Scattered Clouds,0,2013-08-15 20:47:00
3:49 PM,93.2,32.0,11,30.09,15.0,SW,3.5,-,N/A,,Partly Cloudy,230,2013-08-15 21:49:00
4:48 PM,93.2,33.8,12,30.07,15.0,North,5.8,-,N/A,,Partly Cloudy,350,2013-08-15 22:48:00
5:52 PM,93.2,30.2,11,30.06,15.0,Calm,Calm,-,N/A,,Partly Cloudy,0,2013-08-15 23:52:00
6:51 PM,91.4,30.2,11,30.05,15.0,Calm,Calm,-,N/A,,Scattered Clouds,0,2013-08-16 00:51:00
7:55 PM,82.4,55.4,39,30.06,15.0,SW,3.5,-,N/A,,Scattered Clouds,230,2013-08-16 01:55:00
8:52 PM,75.2,48.2,38,30.06,15.0,NE,4.6,-,N/A,,Scattered Clouds,40,2013-08-16 02:52:00
9:35 PM,73.4,42.8,33,30.08,10.0,SE,3.5,-,N/A,,Clear,140,2013-08-16 03:35:00
9:55 PM,73.4,51.8,47,30.08,10.0,SSE,5.8,-,N/A,,Clear,150,2013-08-16 03:55:00
10:15 PM,71.6,46.4,41,30.08,9.0,SSE,5.8,-,N/A,,Clear,150,2013-08-16 04:15:00
11:55 PM,64.4,44.6,49,30.09,10.0,Calm,Calm,-,N/A,,Clear,0,2013-08-16 05:55:00